Find Kosmos-1361

NORAD ID: 13164 Int'l Des: 1982-040 Owner: GUKOS Country: SU operational
LEOCIRCULAR

实时位置

正在加载3D地球...

关于 Kosmos-1361

正在加载描述...

即将过境

Passes for default location (London). Set your location on the main map for personalized predictions.

高度历史

Loading altitude history...

两行轨道根数

1 13164U 82040E 26105.98432007 -.00000004 00000-0 83637-4 0 9992
2 13164 74.0082 107.9152 0015031 266.0899 122.1759 12.48210252 2368
Epoch: Apr 15, 2026 • Age: 8 hours

当前状态

高度 1496.1 km
速度 7.12 km/s
星下点 74.07°N, 119.71°W
发射日期 May 6, 1982
运行时间 43.9 years
类型 other

技术详情

分类 Payload
质量 60.00 kg
干质量 60.00 kg
总质量 60.00 kg
长度 0.80 m
直径 0.80 m
跨度 0.80 m
形状 Poly
制造商 NPOPM
平台类型 Strela-1 11F625
阶段状态 In Orbit
所有者/国家 GUKOS/SU

Most Searched